Location: Maccacari
(45.1333°N, 11.1333°E)
Time: 00:38:50
(UTC+00:00)

Tiros 1 despin weight - Pass Details

Date: 21 January 2021
Orbit: 593 x 642 km, 48.2° (Epoch: 07 March)

Event Time Altitude Azimuth Distance (km) Brightness Sun altitude
Rises 17:48:14 0° 281° (W) 2,857 ? -17.5°
Reaches altitude 10° 17:50:35 10° 285° (WNW) 1,946 ? -17.9°
Maximum altitude 17:54:59 59° 5° (N) 695 ? -18.7°
Enters shadow 17:56:11 42° 60° (ENE) 853 ? -18.9°
Drops below altitude 10° 17:59:20 10° 85° (E) 1,926 - -19.4°
Sets 18:01:39 0° 90° (E) 2,825 - -19.8°
